Hoquiam, WA
on Monday, November 26, 2012

Monday
Previous Day Next Day
Daily Summary
 ActualAverageRecord
Temperature
Mean Temperature °F 44°F  
Max Temperature 48°F 49°F 55°F (1954)
Min Temperature 37°F 39°F 30°F (1956)
Degree Days
Heating Degree Days 22 21  
Month to date heating degree days 488  
Cooling Degree Days 0 0  
Month to date cooling degree days 0  
Year to date cooling degree days 23  
Moisture
Dew Point 35°F   
Average Humidity 78    
Maximum Humidity 93    
Minimum Humidity 59    
Precipitation
Precipitation 0.00 in 0.37 in 1.56 in (2000)
Month to date precipitation 9.66  
Year to date precipitation 56.08  
Wind
Wind Speed 11 mph   
Max Wind Speed 15 mph   
Max Gust Speed mph   
Visibility 10 miles   
Events     

Key: T is trace of precipitation, MM is missing value
Source: NWS Daily Summary
Time(PST)TemperatureDew PointHumidity Pressure Visibility Wind DirectionWind SpeedGust SpeedPrecipitationEvents Conditions
12:53 AM 37.9°F 34.0°F 86% 30.17 in 10.0 miles NE 10.4 mph - N/A   Clear
1:53 AM 37.9°F 34.0°F 86% 30.15 in 10.0 miles ENE 8.1 mph - N/A   Clear
2:53 AM 37.9°F 34.0°F 86% 30.14 in 10.0 miles NE 10.4 mph - N/A   Clear
3:53 AM 37.9°F 34.0°F 86% 30.12 in 10.0 miles ENE 10.4 mph - N/A   Clear
4:53 AM 37.0°F 34.0°F 89% 30.12 in 10.0 miles ENE 10.4 mph - N/A   Clear
5:53 AM 37.9°F 34.0°F 86% 30.11 in 10.0 miles ENE 11.5 mph - N/A   Clear
6:53 AM 37.0°F 33.1°F 86% 30.10 in 10.0 miles ENE 10.4 mph - N/A   Clear
7:53 AM 37.9°F 34.0°F 86% 30.09 in 10.0 miles ENE 10.4 mph - N/A   Clear
8:53 AM 39.9°F 34.0°F 79% 30.09 in 10.0 miles ENE 12.7 mph - N/A   Clear
9:53 AM 42.1°F 35.1°F 76% 30.07 in 10.0 miles ENE 13.8 mph - N/A   Clear
10:53 AM 46.0°F 35.1°F 66% 30.07 in 10.0 miles ENE 15.0 mph - N/A   Clear
11:53 AM 46.0°F 36.0°F 68% 30.06 in 10.0 miles East 15.0 mph - N/A   Clear
12:53 PM 48.0°F 37.0°F 66% 30.04 in 10.0 miles ENE 15.0 mph - N/A   Clear
1:53 PM 48.9°F 35.1°F 59% 30.03 in 10.0 miles ENE 11.5 mph - N/A   Clear
2:53 PM 48.0°F 37.0°F 66% 30.02 in 10.0 miles ENE 12.7 mph - N/A   Clear
3:53 PM 46.9°F 36.0°F 66% 30.02 in 10.0 miles ENE 9.2 mph - N/A   Clear
4:53 PM 45.0°F 35.1°F 68% 30.02 in 10.0 miles NE 8.1 mph - N/A   Clear
5:53 PM 43.0°F 34.0°F 71% 30.03 in 10.0 miles ENE 8.1 mph - N/A   Partly Cloudy
6:53 PM 42.1°F 35.1°F 76% 30.03 in 10.0 miles ENE 8.1 mph - N/A   Clear
7:53 PM 41.0°F 36.0°F 82% 30.05 in 10.0 miles ENE 8.1 mph - N/A   Clear
8:53 PM 41.0°F 35.6°F 81% 30.05 in 10.0 miles NE 6.9 mph - N/A   Clear
9:53 PM 41.0°F 36.0°F 82% 30.06 in 10.0 miles NE 9.2 mph - N/A   Clear
10:53 PM 41.0°F 36.0°F 82% 30.06 in 10.0 miles ENE 6.9 mph - N/A   Mostly Cloudy
11:53 PM 39.0°F 37.0°F 93% 30.06 in 10.0 miles ENE 10.4 mph - N/A   Overcast
Moon Phase
Nov. 26 Nov. 28 Dec. 06 Dec. 13 Dec. 20
Sunrise:07:35 AM (PST) Moon Rise:03:29 PM (PST)
Sunset:04:31 PM (PST) Moon Set:05:46 AM (PST)

Copyright © 2014 The Weather Underground, Inc.